{"data":{"norad_id":68319,"epoch":"2026-09-07T11:57:47.376864Z","epoch_age_seconds":1137749,"freshness":"AGED","line1":"1 68319U 26058A   26250.49846501  .00005306  00000+0  10435-3 0  9999","line2":"2 68319  51.6306 252.7093 0004983 115.8922 244.2580 15.49018229585475","mean_motion":15.49018229,"eccentricity":0.0004983,"inclination_deg":51.6306,"raan_deg":252.7093,"arg_perigee_deg":115.8922,"mean_anomaly_deg":244.258,"bstar":0.00010435,"rev_number":58547,"period_min":92.962108065676,"perigee_km":416.20952088887,"apogee_km":422.9841424255,"semimajor_km":6797.7338316572,"source":"CELESTRAK","updated_at":"2026-09-08T09:00:30.713724Z"}}